, AK

(GMT )
Northway

Weather History for PAOR - October, 2012

Change the Weather History Date:

Tuesday, October 30, 2012

  Actual Average Record
Temperature  
Mean Temperature 6 °F -  
Max Temperature 12 °F 18 °F 37 °F (1952)
Min Temperature 1 °F 5 °F -22 °F (1975)
Degree Days  
Heating Degree Days 58    
Moisture  
Dew Point 6 °F    
Average Humidity 86    
Maximum Humidity 92    
Minimum Humidity 79    
Precipitation  
Precipitation 0.05 in - - ()
Snow  
Snow 0.00 in - - ()
Snow Depth 5.00 in    
Sea Level Pressure  
Sea Level Pressure 29.94 in    
Wind  
Wind Speed 1 mph (NNW)    
Max Wind Speed 6 mph    
Max Gust Speed -    
Visibility 3 miles    
Events Snow    
Averages and records for this station are not official NWS values.
T = Trace of Precipitation, MM = Missing Value Source: NWS Daily Summary

Daily Weather History Graph

Daily Weather History Graph

Search for Another Location

Airport or City:

Trip Planner

Search our weather history database for the weather conditions in past years. The results will help you decide how hot, cold, wet, or windy it might be!

Date:

Astronomy

Oct. 30, 2012 Rise Set
Actual Time 9:00 AM AKDT 5:21 PM AKDT
Civil Twilight 8:10 AM AKDT 6:11 PM AKDT
Nautical Twilight 7:15 AM AKDT 7:05 PM AKDT
Astronomical Twilight 6:22 AM AKDT 7:58 PM AKDT
Moon 5:21 PM AKDT (10/30) 10:26 AM AKDT (10/30)
Length of Visible Light 10h 01m
Length of Day
8h 20m
Full, 99% of the Moon is Illuminated
Oct 30
Full
Nov 6
Last Quarter
Nov 13
New
Nov 20
First Quarter
Nov 28
Full

Hourly Weather History & Observations

Time (AKDT) Temp. Windchill Dew Point Humidity Pressure Visibility Wind Dir Wind Speed Gust Speed Precip Events Conditions
12:53 AM 10.0 °F - 8.1 °F 92% 29.99 in 7.0 mi Calm Calm - 0.00 in Snow Light Snow
1:53 AM 9.0 °F - 6.1 °F 88% 29.99 in 3.0 mi Calm Calm - 0.00 in Snow Light Snow
2:38 AM 8.6 °F - 6.8 °F 92% 29.84 in 2.0 mi Calm Calm - 0.00 in Snow Light Snow
2:53 AM 9.0 °F - 6.1 °F 88% 29.99 in 2.0 mi Calm Calm - 0.00 in Snow Light Snow
3:31 AM 8.6 °F - 6.8 °F 92% 29.84 in 3.0 mi Calm Calm - 0.00 in Snow Light Snow
3:53 AM 8.1 °F - 5.0 °F 87% 29.99 in 3.0 mi Calm Calm - 0.00 in Snow Light Snow
4:53 AM 6.1 °F - 1.9 °F 83% 30.00 in 4.0 mi Calm Calm - 0.00 in Snow Light Snow
5:53 AM 3.0 °F - -0.0 °F 87% 30.00 in 6.0 mi Calm Calm - 0.00 in Snow Light Snow
6:53 AM 3.9 °F - 1.0 °F 88% 30.00 in 4.0 mi Calm Calm - 0.00 in Snow Light Snow
7:53 AM 1.9 °F - -0.9 °F 88% 30.01 in 5.0 mi Calm Calm - 0.00 in Snow Light Snow
8:53 AM 3.0 °F - -0.9 °F 84% 30.01 in 9.0 mi Calm Calm - 0.00 in Snow Light Snow
9:53 AM 5.0 °F - 1.9 °F 87% 30.01 in 4.0 mi Calm Calm - 0.00 in Snow Light Snow
10:11 AM 6.8 °F - 3.2 °F 85% 29.84 in 2.5 mi Calm Calm - 0.00 in Snow Light Snow
10:41 AM 8.6 °F - 3.2 °F 79% 29.85 in 5.0 mi Calm Calm - 0.00 in Snow Light Snow
10:53 AM 8.1 °F - 5.0 °F 87% 30.00 in 6.0 mi Calm Calm - 0.00 in Snow Light Snow
11:53 AM 10.0 °F 3.6 °F 6.1 °F 84% 29.99 in 4.0 mi NNW 3.5 mph - 0.00 in Snow Light Snow
12:17 PM 10.4 °F - 6.8 °F 85% 29.84 in 2.5 mi Calm Calm - 0.00 in Snow Light Snow
12:53 PM 10.9 °F 4.7 °F 7.0 °F 84% 29.99 in 2.0 mi NW 3.5 mph - 0.00 in Snow Light Snow
1:13 PM 10.4 °F 2.2 °F 6.8 °F 85% 29.84 in 1.2 mi NNW 4.6 mph - 0.00 in Snow Light Snow
1:53 PM 12.0 °F 4.1 °F 7.0 °F 80% 29.99 in 1.5 mi North 4.6 mph - 0.00 in Snow Light Snow
2:39 PM 12.2 °F 4.3 °F 6.8 °F 79% 29.82 in 0.8 mi North 4.6 mph - 0.00 in Snow Light Snow
2:53 PM 10.9 °F 1.4 °F 7.0 °F 84% 29.98 in 0.8 mi North 5.8 mph - 0.01 in Snow Light Snow
3:14 PM 12.2 °F - 6.8 °F 79% 29.82 in 1.0 mi Calm Calm - 0.00 in Snow Light Snow
3:53 PM 12.0 °F - 7.0 °F 80% 29.96 in 1.2 mi Calm Calm - 0.00 in Snow Light Snow
4:53 PM 12.0 °F - 8.1 °F 84% 29.96 in 1.0 mi Calm Calm - 0.01 in Snow Light Snow
5:53 PM 10.9 °F 4.7 °F 8.1 °F 88% 29.96 in 1.8 mi NW 3.5 mph - 0.00 in Snow Light Snow
6:53 PM 10.9 °F 4.7 °F 8.1 °F 88% 29.95 in 2.0 mi NW 3.5 mph - 0.01 in Snow Light Snow
7:53 PM 10.9 °F 4.7 °F 8.1 °F 88% 29.95 in 2.0 mi NNW 3.5 mph - 0.01 in Snow Light Snow
8:53 PM 10.9 °F - 8.1 °F 88% 29.95 in 2.0 mi Calm Calm - 0.00 in Snow Light Snow
9:53 PM 10.9 °F 4.7 °F 8.1 °F 88% 29.94 in 4.0 mi NNW 3.5 mph - 0.01 in Snow Light Snow
10:53 PM 10.0 °F 1.8 °F 7.0 °F 87% 29.92 in 4.0 mi NNW 4.6 mph - 0.00 in Snow Light Snow
11:53 PM 10.0 °F 3.6 °F 6.1 °F 84% 29.92 in 3.0 mi NW 3.5 mph - 0.00 in Snow Light Snow